Home   Weather   42°12'N, 91°31'W   Past weeks
Flag for USA

Past Weather in 42°12'N, 91°31'W, USA — Yesterday and Last 2 Weeks

Now
78 °F

Scattered clouds.


Feels Like: 81 °F
Forecast: 91 / 74 °F
Wind: 7 mph from South

Location: Vinton Veterans Memorial Airpark Airport

Current Time: Jul 18, 2019 at 10:29:21 am

Latest Report: Jul 18, 2019 at 10:15 am


Visibility: 10 mi

Pressure: 29.79 "Hg

Humidity: 85%

Dew Point: 74 °F

Location of 42°12'N, 91°31'WLocation

Past Weather in 42°12'N, 91°31'W — Graph

°F

42°12'N, 91°31'W Temperature Yesterday

Maximum temperature yesterday: 85 °F (at 10:55 am)
Minimum temperature yesterday: 71 °F (at 12:15 am)
Average temperature yesterday: 74 °F

High & Low Weather Summary for the Past Weeks

 TemperatureHumidityPressure
High96 °F (Jul 14, 1:35 pm)100% (Jul 4, 1:15 am)30.12 "Hg (Jul 4, 1:15 am)
Low58 °F (Jul 12, 4:15 am)36% (Jul 13, 4:15 pm)29.75 "Hg (Jul 18, 3:55 am)
Average78 °F76%29.97 "Hg
* Reported Jul 3 9:15 am — Jul 18 9:35 am, 42°12'N, 91°31'W. Weather by CustomWeather, © 2019

Note: Actual official high and low records may vary slightly from our data, if they occured in-between our weather recording intervals... More about our weather records

Advertising

42°12'N, 91°31'W Weather History for the Previous 24 Hours

Scroll right to see more
 ConditionsComfort  
Time TempWeatherWind HumidityBarometerVisibility
9:35 am
Thu, Jul 18
81 °FSunny.8 mph79%29.81 "Hg10 mi
9:15 am81 °FSunny.7 mph80%29.79 "Hg10 mi
8:35 am76 °FScattered clouds.7 mph98%29.80 "Hg10 mi
8:15 am76 °FOvercast.5 mph97%29.80 "Hg10 mi
7:35 am76 °FMostly cloudy.No wind97%29.80 "Hg10 mi
7:15 am76 °FMostly cloudy.5 mph97%29.79 "Hg10 mi
6:55 am75 °FOvercast.6 mph98%29.78 "Hg10 mi
6:35 am76 °FMore clouds than sun.6 mph97%29.78 "Hg10 mi
6:15 am76 °FFog.7 mph92%29.78 "Hg5 mi
5:55 am76 °FPartly sunny.No wind88%29.76 "Hg10 mi
5:35 am76 °FPassing clouds.8 mph90%29.77 "Hg10 mi
5:15 am73 °FPassing clouds.5 mph94%29.78 "Hg10 mi
4:55 am73 °FPassing clouds.6 mph95%29.78 "Hg10 mi
4:35 am73 °FPassing clouds.No wind93%29.78 "Hg10 mi
4:15 am73 °FClear.9 mph91%29.79 "Hg10 mi
3:55 am73 °FClear.13 mph89%29.75 "Hg10 mi
3:15 am73 °FClear.12 mph85%29.77 "Hg10 mi
2:55 am73 °FClear.13 mph85%29.78 "Hg10 mi
2:35 am76 °FClear.12 mph84%29.79 "Hg10 mi
2:15 am73 °FClear.12 mph86%29.80 "Hg10 mi
1:55 am73 °FClear.13 mph88%29.80 "Hg10 mi
1:35 am73 °FClear.14 mph93%29.80 "Hg10 mi
1:15 am73 °FClear.13 mph93%29.80 "Hg10 mi
12:55 am73 °FClear.12 mph94%29.81 "Hg10 mi
12:35 am73 °FClear.9 mph95%29.83 "Hg10 mi
12:15 am73 °FPassing clouds.9 mph96%29.84 "Hg10 mi
11:55 pm
Wed, Jul 17
73 °FClear.8 mph96%29.84 "Hg10 mi
11:35 pm73 °FClear.8 mph97%29.84 "Hg10 mi
11:15 pm73 °FClear.8 mph98%29.84 "Hg10 mi
10:55 pm73 °FClear.5 mph100%29.85 "Hg10 mi
10:35 pm71 °FClear.6 mph100%29.85 "Hg10 mi
10:15 pm71 °FClear.7 mph99%29.86 "Hg10 mi
9:35 pm72 °FClear.5 mph98%29.86 "Hg10 mi
9:15 pm73 °FClear.No wind97%29.86 "Hg10 mi
8:55 pm74 °FClear.No wind95%29.86 "Hg10 mi
8:35 pm76 °FSunny.No wind84%29.84 "Hg10 mi
8:15 pm76 °FSunny.3 mph81%29.82 "Hg10 mi
7:55 pm76 °FSunny.6 mph80%29.82 "Hg10 mi
7:35 pm76 °FSunny.7 mph80%29.83 "Hg10 mi
7:15 pm77 °FSunny.7 mph79%29.83 "Hg10 mi
6:55 pm76 °FSunny.6 mph81%29.83 "Hg10 mi
6:35 pm76 °FSunny.9 mph86%29.82 "Hg10 mi
6:15 pm76 °FSunny.9 mph93%29.82 "Hg10 mi
5:55 pm73 °FSunny.10 mph97%29.82 "Hg10 mi
5:35 pm72 °FSunny.10 mph99%29.82 "Hg10 mi
5:15 pm71 °FSunny.8 mph100%29.84 "Hg10 mi
4:55 pm71 °FSunny.7 mph100%29.84 "Hg10 mi
4:35 pm71 °FSunny.10 mph100%29.87 "Hg10 mi
4:15 pm71 °FSunny.10 mph100%29.88 "Hg10 mi
3:55 pm71 °FLight rain. Sunny.9 mph100%29.91 "Hg10 mi
3:35 pm71 °FSunny.No wind100%29.95 "Hg10 mi
3:15 pm71 °FLight rain. Sunny.6 mph100%29.97 "Hg10 mi
2:35 pm71 °FLight rain. Scattered clouds.No wind99%29.92 "Hg10 mi
2:15 pm71 °FLight rain. Broken clouds.9 mph99%29.90 "Hg10 mi
1:55 pm71 °FRain. Scattered clouds.9 mph99%29.91 "Hg5 mi
1:35 pm71 °FHeavy rain. Cloudy.No wind99%29.95 "Hg2 mi
1:15 pm71 °FHeavy rain. Mostly cloudy.No wind95%29.96 "Hg4 mi
12:55 pm76 °FRain. Broken clouds.14 mph73%29.98 "Hg7 mi
12:35 pm83 °FScattered clouds.6 mph75%29.95 "Hg10 mi
12:15 pm84 °FSunny.6 mph73%29.95 "Hg10 mi
11:35 am84 °FSunny.6 mph73%29.93 "Hg10 mi
11:15 am84 °FSunny.6 mph72%29.92 "Hg10 mi
10:55 am85 °FSunny.6 mph71%29.92 "Hg10 mi
10:35 am84 °FSunny.6 mph71%29.93 "Hg10 mi
10:15 am84 °FSunny.7 mph71%29.93 "Hg10 mi
Weather by CustomWeather, © 2019

See weather overview